Location: ??
(34.8440°N, 135.5626°E)
Time: 11:21:42
(UTC+00:00)

Daily predictions for brighter satellites

Satellite Brightness Start Highest point End
(mag) Time Altitude Azimuth Time Altitude Azimuth Time Altitude Azimuth
OBJECT-B 3.4 12:06:23 14° WSW 12:07:24 16° W 12:09:30 10° NW
Resurs 01 Rocket 2.5 12:06:48 36° SW 12:07:54 43° W 12:12:07 10° NNW
Cosmos 1470 Rocket 3.6 12:10:14 73° N 12:10:14 73° N 12:14:14 10° N
SL-24 R/B - RUBIN 2 4.2 12:08:35 10° NNW 12:15:09 88° WSW 12:16:05 66° SSE
SPOT 5 4.1 12:17:30 26° NNE 12:17:30 26° NNE 12:19:55 10° N
Spot 2 Rocket 3.3 12:16:08 84° SSE 12:16:19 89° ENE 12:21:26 10° NNW
Cosmos 921 Rocket 4.3 12:15:23 10° N 12:17:51 30° NNE 12:17:51 30° NNE
CENTAUR R/B 2.2 12:19:44 66° S 12:20:34 80° ESE 12:27:07 10° NNE
Cosmos 2123 Rocket 4.2 12:18:23 10° NNW 12:24:32 66° W 12:26:18 46° SSW
Cosmos 1818 4.2 12:22:17 10° NW 12:27:26 44° WSW 12:27:56 43° SW
Cosmos 1605 Rocket 4.1 12:27:23 46° SSW 12:29:14 70° W 12:35:19 10° N
GP-B 3.8 12:25:28 10° N 12:29:35 50° WNW 12:29:35 50° WNW
Cosmos 1862 Rocket 4.3 12:26:18 10° NNW 12:29:58 52° NW 12:29:58 52° NW
Meteor 1-25 Rocket 4.5 12:29:39 51° SW 12:30:49 64° W 12:36:22 10° N
SL-16 R/B 3.4 12:42:50 10° N 12:46:54 32° NE 12:46:54 32° NE
SPOT 1/Viking Rocket 4.4 12:55:09 45° W 12:55:09 45° W 12:59:41 10° NNW
NOSS 3-2 (C) 4.1 12:56:05 27° WSW 12:58:47 47° NW 13:04:48 10° NNE
Cosmos 1459 Rocket 4.4 13:01:30 55° NNE 13:01:30 55° NNE 13:06:28 10° N
Cosmos 2322 Rocket 3.4 13:03:50 10° N 13:07:37 35° NNE 13:07:37 35° NNE
Cosmos 2360 Rocket 3.9 13:17:18 10° N 13:20:26 24° NNE 13:20:26 24° NNE
USA 234 3.4 13:27:41 66° NNW 13:27:41 66° NNW 13:33:15 10° NW
Lacrosse 5 3.7 13:22:44 10° NNW 13:25:25 28° N 13:25:25 28° N
Cosmos 1980 Rocket 4.0 13:26:04 10° NW 13:29:32 23° W 13:29:32 23° W
Terra 3.8 13:33:23 25° NW 13:33:23 25° NW 13:35:35 10° NNW
ATLAS 3B R/B 3.4 13:39:35 43° NNE 13:39:35 43° NNE 13:43:54 10° NNE
Cosmos 2333 Rocket 4.4 13:44:07 10° NNE 13:46:42 18° NE 13:46:42 18° NE
SL-16 R/B 4.5 14:27:12 10° NW 14:28:45 17° WNW 14:28:45 17° WNW
Cosmos 2219 Rocket 4.1 14:34:38 10° N 14:37:09 25° N 14:37:09 25° N
Cosmos 2297 Rocket 4.4 15:17:34 20° NE 15:17:34 20° NE 15:19:16 10° NNE
Cosmos 2333 Rocket 4.4 15:27:10 10° NNW 15:28:40 19° NW 15:28:40 19° NW
Cosmos 2237 Rocket 4.1 15:27:35 10° N 15:30:12 25° N 15:30:12 25° N
ATLAS 3B CENTAUR R/B 4.3 15:26:56 10° WSW 15:52:36 54° SE 15:59:48 10° E
SL-16 R/B 3.7 16:03:31 36° NE 16:03:31 36° NE 16:08:36 10° N
Cosmos 2227 Rocket 3.8 16:06:17 30° N 16:06:17 30° N 16:09:08 10° NNE
ADEOS II 4.3 16:13:32 10° NE 16:15:53 18° ENE 16:15:53 18° ENE
CZ-2D R/B 3.5 16:23:14 10° NNE 16:26:28 37° NNE 16:26:28 37° NNE
SJ 16-02 3.8 16:42:46 19° N 16:42:46 19° N 16:44:05 10° N
SL-16 R/B 3.2 16:38:43 10° NNW 16:42:40 42° NNE 16:42:40 42° NNE
USA 229 DEB 3.9 16:45:45 61° NE 16:45:45 61° NE 16:51:17 10° NNE
USA 229 3.9 16:45:51 61° NE 16:45:51 61° NE 16:51:20 10° NNE
Cosmos 2263 Rocket 3.5 16:51:13 33° E 16:51:13 33° E 16:55:14 10° NE
NOSS 3-1 (A) 4.0 16:57:24 48° ENE 16:57:24 48° ENE 17:01:50 10° NE
Cosmos 2297 Rocket 4.2 16:59:21 19° NW 16:59:21 19° NW 17:02:12 10° N
Cosmos 1607 4.2 17:06:49 10° NNW 17:12:11 64° NNW 17:12:11 64° NNW
ARIANE 5 R/B 3.6 17:10:23 10° NNE 17:15:14 38° E 17:15:18 38° E
Resurs 1-4 Rocket 3.5 17:12:01 10° N 17:15:09 30° NNW 17:15:09 30° NNW
Atlas Centaur 2 3.9 17:19:34 28° SE 17:19:34 28° SE 17:24:46 10° E
CZ-4B R/B 4.4 17:18:06 10° N 17:21:09 39° N 17:21:09 39° N
IRS-P3 4.3 17:17:58 10° NNE 17:22:54 66° ENE 17:22:54 66° ENE
USA 215 3.2 17:23:31 10° NE 17:30:02 70° NW 17:30:50 63° W
IRS-1D 4.1 17:32:25 10° N 17:36:26 46° NW 17:36:26 46° NW
Cosmos 1953 3.3 17:43:17 44° NNE 17:43:17 44° NNE 17:46:08 10° N
IDEFIX/ARIANE 42P 3.4 17:37:21 10° NNE 17:42:20 44° E 17:43:37 37° SE
SL-16 R/B 3.8 17:48:36 25° WNW 17:48:36 25° WNW 17:51:56 10° NW
Cosmos 1943 4.3 17:42:18 10° N 17:47:37 42° ENE 17:52:54 10° SE
Cosmos 2266 Rocket 4.0 17:44:48 10° NNW 17:50:57 56° W 17:51:00 56° W
Cosmos 2084 3.9 17:52:54 57° E 17:52:54 57° E 17:56:57 10° NE
SeaSat 1 4.2 17:50:14 10° NE 17:54:19 26° ESE 17:56:30 19° SE
ADEOS II 2.7 17:52:14 10° N 17:56:48 41° WNW 17:56:48 41° WNW
Cosmos 2098 Rocket 4.2 17:55:28 10° NNW 18:00:38 45° W 18:00:38 45° W
ATLAS CENTAUR R/B 1.6 18:01:30 61° ESE 18:01:30 61° ESE 18:05:24 10° NE
Meteor 2-10 4.2 18:03:17 57° W 18:03:38 58° W 18:09:10 10° N
Cosmos 1809 Rocket 4.3 17:58:31 10° NNW 18:04:36 71° W 18:06:25 46° SSW
Cosmos 2298 Rocket 3.9 18:05:10 63° SW 18:06:00 80° WNW 18:11:21 10° NNE
CZ-2D R/B 4.2 18:05:32 10° NW 18:07:47 13° WNW 18:07:47 13° WNW
Cosmos 1602 Rocket 3.3 18:05:54 10° N 18:10:16 85° W 18:10:30 78° SSW
SL-08 R/B 3.3 18:09:46 61° SSW 18:10:27 70° WSW 18:15:24 10° NNW
ATLAS 3B CENTAUR R/B 3.5 18:05:53 26° W 18:13:05 52° SSW 18:19:24 10° SE
Cosmos 1726 3.9 18:16:52 22° NW 18:16:52 22° NW 18:18:37 10° NNW
ERS-2 4.3 18:12:54 10° SE 18:15:57 26° ENE 18:19:01 10° NNE
Nadezhda 2 Rocket 4.3 18:11:41 10° N 18:17:52 81° W 18:21:54 23° S
Meteor 1-16 Rocket 4.1 18:20:21 46° SW 18:21:50 66° W 18:27:18 10° N
Cosmos 1726 Rocket 4.4 18:20:19 20° SSE 18:23:04 49° E 18:27:22 10° NNE
Meteor 1-21 Rocket 4.1 18:19:38 10° NNW 18:25:05 63° W 18:27:37 32° SSW
Spot 4 Rocket 4.1 18:21:25 10° N 18:26:30 61° WNW 18:28:06 41° SW
CZ-2D R/B 3.7 18:26:30 10° N 18:30:19 44° WNW 18:30:25 44° W
Hubble Space Telescope 2.6 18:31:17 18° SSE 18:31:17 18° SSE 18:34:02 10° ESE
Cosmos 2263 Rocket 3.3 18:32:55 25° W 18:34:08 27° WNW 18:38:48 10° N
PSLV R/B 4.4 18:30:34 10° NNE 18:34:48 48° E 18:38:22 14° S
CZ-2C R/B 3.4 18:31:00 10° NNE 18:35:22 42° E 18:39:47 10° S
FALCON 9 DEB 4.1 18:36:41 33° SSE 18:36:41 33° SSE 18:38:47 10° SSE
OAO 3 Rocket 3.2 18:38:38 30° W 18:41:06 87° N 18:46:03 10° E
Cosmos 2228 2.9 18:40:24 32° SSW 18:42:22 72° W 18:46:46 10° N
OAO 1 Rocket 4.4 18:42:32 32° WSW 18:45:03 75° SSE 18:50:25 10° E
SL-08 ROCKET BODY 4.4 18:45:12 10° N 18:51:16 87° E 18:57:11 10° S
Cosmos 468 4.4 18:46:37 10° NNW 18:51:54 81° WSW 18:57:11 10° SSE
MSX 3.9 18:46:21 10° N 18:52:00 59° WNW 18:56:01 20° SSW
Cosmos 1908 4.2 18:51:56 28° W 18:52:22 29° WNW 18:55:50 10° NNW
ARIANE 5 R/B 3.9 18:50:03 10° NNW 18:54:03 23° WNW 18:55:38 20° W
MINOTAUR IV R/B 4.5 18:50:29 10° NNW 18:54:59 82° WSW 18:59:26 10° SSE
CZ-2C R/B 3.5 18:52:11 10° N 18:55:40 34° WNW 18:56:42 29° WSW
Cosmos 2058 Rocket 3.2 18:53:26 10° S 18:57:54 78° E 19:02:22 10° N
CZ-4B R/B 3.6 18:55:35 10° SE 18:58:24 27° ENE 19:01:11 10° NNE
Cosmos 1844 Rocket 2.6 18:54:29 17° SSW 18:58:51 86° WNW 19:04:27 10° NNE
Cosmos 1758 Rocket 3.9 18:57:36 10° NNW 19:01:42 43° W 19:05:03 14° SSW
Atlas Centaur 2 3.1 19:02:09 20° WSW 19:07:16 57° SSE 19:15:22 10° E
Cosmos 1603 4.5 19:03:20 10° NW 19:08:14 30° WSW 19:13:05 10° SSW
H-2A R/B 2.3 19:05:57 10° S 19:09:51 42° W 19:13:44 10° NNW
USA 281 3.2 19:03:55 10° NNE 19:10:31 88° WNW 19:17:04 10° SSW
Cosmos 1386 Rocket 4.4 19:14:53 10° NNW 19:20:47 60° W 19:26:40 10° S
CZ-4C R/B 4.0 19:19:45 17° SW 19:21:08 22° W 19:23:47 10° NW
IDEFIX/ARIANE 42P 4.1 19:17:56 10° NNW 19:21:32 19° WNW 19:24:25 13° WSW
OAO 2 Rocket 3.5 19:17:20 16° WSW 19:21:36 72° SSE 19:26:47 10° E
Cosmos 1825 Rocket 4.3 19:18:33 10° NNW 19:22:23 31° W 19:26:12 10° SSW
Delta 2 Rocket 3.1 19:19:18 14° W 19:22:24 77° N 19:26:26 10° E
Cosmos 1455 4.4 19:19:33 10° SSE 19:22:52 28° E 19:26:12 10° NNE
Cosmos 1300 3.2 19:20:48 12° SSW 19:24:01 39° W 19:27:37 10° N
ADEOS 3.6 19:19:07 10° NNE 19:24:22 90° ESE 19:29:35 10° SSW
Meteor 2-15 Rocket 4.5 19:21:27 10° SSW 19:27:26 61° W 19:33:26 10° N
Cosmos 494 Rocket 4.0 19:23:28 10° NNW 19:28:34 63° WSW 19:33:41 10° S
CZ-4B R/B 4.4 19:26:37 10° NNE 19:30:12 53° E 19:33:47 10° S
Cosmos 1953 Rocket 4.0 19:26:48 10° NNW 19:31:00 40° W 19:35:09 10° SSW
Cosmos 1943 4.3 19:27:05 10° NW 19:31:18 22° W 19:35:31 10° SSW
SeaSat 1 3.3 19:27:21 10° N 19:31:48 35° WNW 19:36:14 10° WSW
NOSS 2-2 (D) 3.7 19:33:42 11° SW 19:36:56 41° NW 19:40:27 10° NNE
NOSS 2-2 (E) 4.1 19:34:14 11° WSW 19:37:12 31° NW 19:40:33 10° NNE
ATLAS CENTAUR R/B 3.6 19:38:59 10° WNW 19:40:34 12° NW 19:42:07 10° NNW
USA 267 3.3 19:34:38 10° SE 19:41:11 85° SW 19:47:45 10° NW
Meteor 2-10 Rocket 3.9 19:42:21 10° S 19:47:25 70° E 19:52:42 10° NNE
ERS-2 3.8 19:47:18 10° SW 19:49:28 15° W 19:51:39 10° WNW
ALOS 2.3 19:45:32 10° N 19:50:13 86° WNW 19:54:53 10° SSW
DASH 4.2 19:45:04 10° W 20:02:57 55° S 20:06:51 10° ESE
